Weather Roundup
Issued by NWS Chicago, IL

Home | Current Version | Previous Version | Graphics & Text | Print | Product List | Glossary On
Versions: 1 2 3 4 5 6 7 8 9 10 11 12 13 14 15 16 17 18 19 20 21 22 23 24 25 26 27 28 29 30 31 32 33 34 35 36 37 38 39 40 41 42 43 44 45 46 47 48 49 50
789
NZUS59 KLOT 301404
HRRLOT

CHICAGO AREA WEATHER ROUNDUP
NATIONAL WEATHER SERVICE CHICAGO/ROMEOVILLE IL
900 AM CDT FRI SEP 30 2016

NOTE: "FAIR" INDICATES FEW OR NO CLOUDS BELOW 12,000 FEET WITH NO
SIGNIFICANT WEATHER AND/OR OBSTRUCTIONS TO VISIBILITY.

* THESE STATIONS ARE NOT UNDER NWS QUALITY CONTROL. THEY ALSO MAY NOT
  REPORT WEATHER SUCH AS PRECIPITATION OR FOG.

ILZ005-006-012>014-019>023-301500-
NORTHEAST ILLINOIS

CITY           SKY/WX    TMP DP  RH WIND       PRES   REMARKS
OHARE          CLOUDY    62  59  90 NE10      30.14S FOG
MIDWAY         CLOUDY    64  59  83 NE15      30.13S
AURORA         CLOUDY    63  59  87 NE13      30.14S
LANSING*       CLOUDY    62  61  96 NE14      30.12S
JOLIET*        CLOUDY    63  61  93 NE12G20   30.12S
WAUKEGAN       LGT RAIN  61  60  97 NE14G20   30.16S FOG
DUPAGE AIRPORT CLOUDY    62  58  86 NE15      30.14S
WHEELING       CLOUDY    61  59  93 N7        30.17R
KANKAKEE*      CLOUDY    61  59  93 NE6       30.12R
MORRIS*        CLOUDY    62  59  90 NE5       30.11S
LEWIS AIRPORT* CLOUDY    61  61 100 NE15G22   30.13R
NORTHERLY ISL    N/A     61  58  90 NE18        N/A
$$

WIZ051-052-058>065-066-070>072-301500-
SOUTHEAST WISCONSIN

CITY           SKY/WX    TMP DP  RH WIND       PRES   REMARKS
MILWAUKEE      LGT RAIN  61  58  90 NE13G24   30.21F FOG
KENOSHA*       LGT RAIN  60  59  96 NE10      30.19S VSB 1
RACINE*        LGT RAIN  61  58  90 NE15      30.20F
WAUKESHA       LGT RAIN  57  55  94 NE8G18    30.23S
WEST BEND      RAIN      64  64 100 NE7       30.24S
$$

INZ001>003-010>013-019-020-301500-
NORTHWEST INDIANA

CITY           SKY/WX    TMP DP  RH WIND       PRES   REMARKS
GARY*          CLOUDY    63  61  94 SE10G23   30.12
MICHIGAN CITY* NOT AVBL
RENSSELAER*    NOT AVBL
VALPARAISO     CLOUDY    60  58  92 NE7       30.11S
$$

LMZ740>746-301500-
SOUTHERN LAKE MICHIGAN

STATION/POSITION TIME  SKY/WX   TEMP WIND        PRES    VSBY
                                AIR  DIR/SP/G
                 (UTC)          (F)  (DEG/KT/KT) (MB)    (MI)
HARRISON CRIB    1340            63   50/ 24/ 26   N/A
BURNHAM HARBOR   1400            61   40/ 16/ 18   N/A
CALUMET HARBOR   1330            62   20/ 13/ 19 1019.7R
BURNS HARBOR     1340            62   40/ 20/ 25 1020.0R
MICHIGAN CITY    1340            60   20/ 21/ 22   N/A
$$

ABBREVIATIONS USED IN REMARKS
   TC - TEMPERATURE IN CELSIUS
  WCI - WIND CHILL INDEX
   HX - HEAT INDEX
  VSB - VISIBILITY
$$




USA.gov is the U.S. government's official web portal to all federal, state and local government web resources and services.